Regional Weather Roundup
Issued by NWS Huntsville, AL

Home | Current Version | Previous Version | Text Only | Print | Product List | Glossary On
Versions: 1 2 3 4 5 6 7 8 9 10 11 12 13 14 15 16 17 18 19 20 21 22 23 24 25 26 27 28 29 30 31 32 33 34 35 36 37 38 39 40 41 42 43 44 45 46 47 48 49 50
000
ASUS44 KHUN 281010
RWRHUN

WEATHER ROUNDUP FOR THE TENNESSEE VALLEY
NATIONAL WEATHER SERVICE HUNTSVILLE AL
500 AM CDT SUN MAY 28 2017

ALZ001>004-281100-
NORTHWEST ALABAMA

CITY           SKY/WX    TMP DP  RH WIND       PRES   REMARKS
COURTLAND HCN    N/A     64 N/A N/A NW9         N/A
RUSSELLVILLE     N/A     63 N/A N/A MISG        N/A
SHOALS AIRPORT RAIN      65  62  90 W6        29.94F
SHOALS TVA RES   N/A     64 N/A N/A MISG        N/A
$$

ALZ005>007-016-281100-
NORTH CENTRAL ALABAMA

CITY           SKY/WX    TMP DP  RH WIND       PRES   REMARKS
CULLMAN AG STN   N/A     64 N/A N/A CALM        N/A
DECATUR AP     LGT RAIN  65  63  93 W3        29.95R
HUNTSVILLE AP  CLOUDY    65  65 100 VRB3      29.95R
MERIDIANVILLE  CLOUDY    63  61  94 W6        29.92R
REDSTONE ARSN  LGT RAIN  64  63  94 SW7       29.94R
VINEMONT AP    PTSUNNY   63  62  94 CALM      29.98R
$$

ALZ008>010-281100-
NORTHEAST ALABAMA

CITY           SKY/WX    TMP DP  RH WIND       PRES   REMARKS
ALBERTVILLE    CLOUDY    63  63 100 SW5       29.94R
FORT PAYNE     CLOUDY    63  59  88 CALM      29.88R
SCOTTSBORO AP  LGT RAIN  64  64 100 W5        29.92R
SCOTTSBORO HCN   N/A     64 N/A N/A MISG        N/A
VALLEY HEAD      N/A     63 N/A N/A MISG        N/A
$$

TNZ076-096-097-281100-
SOUTHEASTERN MIDDLE TENNESSEE

CITY           SKY/WX    TMP DP  RH WIND       PRES   REMARKS
TULLAHOMA      CLEAR     63  63 100 CALM      29.87F
WINCHESTER     CLEAR     63  61  94 CALM        N/A
$$

...SURROUNDING SITES...

CITY           SKY/WX    TMP DP  RH WIND       PRES   REMARKS
ATLANTA        CLOUDY    70  63  78 S3        29.94R THUNDER
ANNISTON       LGT RAIN  66  64  93 SW7       29.96S
BIRMINGHAM     CLOUDY    67  65  93 SE5       29.95F
CHATTANOOGA    TSTM      65  62  90 E7        29.88F FOG
CORINTH        LGT RAIN  64  63  94 S10       29.97F
DALTON         TSTM      63  63 100 E8        29.95F
GADSDEN        CLOUDY    65  64  97 SW3       29.94R
GOLDEN TRNGL   CLOUDY    66  61  82 N9        29.96R THUNDER
JACKSON TN     LGT RAIN  64  64 100 S14       29.89F
MEMPHIS        TSTM      65  63  93 S12       29.99R
NASHVILLE      CLOUDY    65  62  90 S6        29.85R
OXFORD MS      LGT RAIN  63  63 100 S6        30.06R
ROME           LGT RAIN  65  65 100 E7G21     29.84F
SAVANNAH       CLOUDY    64  63  94 S10       29.94R
SELMER         CLOUDY    63  63 100 S7        29.93F FOG
TUPELO         LGT RAIN  65  62  90 S5        30.01R
TUSCALOOSA     CLOUDY    68  66  93 CALM      29.95R
$$

...GULF COAST WEATHER...

CITY           SKY/WX    TMP DP  RH WIND       PRES   REMARKS
GULFPORT       CLOUDY    80  76  87 SW6       29.93R
PASCAGOULA     CLOUDY    78  74  87 SW5       29.95R
MOBILE         CLOUDY    76  73  91 CALM      29.97R
GULF SHORES    CLOUDY    77  77 100 SW7       29.94S
PENSACOLA      CLOUDY    78  75  90 SW8       29.95R
DESTIN         CLOUDY    80  80 100 SW5       29.96R
PANAMA CITY    PTCLDY    77  74  90 W7        29.97R
APPALACHICOLA  PTCLDY    77  77 100 W6        29.97R
$$




USA.gov is the U.S. government's official web portal to all federal, state and local government web resources and services.